User: anonymous   Login
Location: Caltech
(34.1382°N, 118.1253°W)
Time: 20:32:15
(UTC-07:00)
Language:

SL-08 R/B - Orbit

View from above orbital plane
View from above orbital plane
View from above satellite
View from above satellite

Ground track
Ground track

The orbit data is extracted from the following two-line orbital elements,

1 27561U 02054C   16212.89219195 -.00000000  00000-0  10449-4 0  9991
2 27561  98.2134 345.1019 0047559  89.2912 271.3734 14.55545640725543
Epoch (UTC): 30 July 2016 21:24:45
Eccentricity: 0.0047559
inclination: 98.2134°
perigee height: 674 km
apogee height: 741 km
right ascension of ascending node: 345.1019°
argument of perigee: 89.2912°
revolutions per day: 14.55545640
mean anomaly at epoch: 271.3734°
orbit number at epoch: 72554

The dashed part of the orbit path shows where the satellite is in the earth's shadow,  

DLR